Location: *
(34.6903°N, 135.5184°E)
Time: 14:58:32
(UTC+00:00)

ATLAS 3B R/B - Pass Details

Date: 22 September 2019
Orbit: 1028 x 1166 km, 63.8° (Epoch: 07 October)

Event Time Altitude Azimuth Distance (km) Brightness Sun altitude
Exits shadow 17:40:59 30° 359° (N) 1,753 4.0 -37.1°
Drops below altitude 10° 17:44:31 10° 19° (NNE) 2,831 5.4 -36.5°
Sets 17:47:15 0° 25° (NNE) 3,782 6.3 -36.0°
